Erie, PA

4:32 PM EST on December 10, 2019 (GMT -0500)
Erie International

Weather History for KERI - October, 2019

Change the Weather History Date:

Wednesday, October 2, 2019

  Actual Average Record
Temperature  
Mean Temperature 69 °F 58 °F  
Max Temperature 80 °F 66 °F 87 °F (1927)
Min Temperature 58 °F 50 °F 35 °F (1899)
Degree Days  
Heating Degree Days 0 8  
Month to date heating degree days 0 16  
Since 1 July heating degree days 12 140  
Cooling Degree Days 4 1  
Month to date cooling degree days 20 2  
Year to date cooling degree days 845 631  
Growing Degree Days 19 (Base 50)    
Moisture  
Dew Point 64 °F    
Average Humidity 83    
Maximum Humidity 93    
Minimum Humidity 60    
Precipitation  
Precipitation 0.08 in 0.14 in 0.90 in (2008)
Month to date precipitation 0.08 0.29  
Year to date precipitation 29.71 30.73  
Snow  
Snow 0.00 in 0.00 in - ()
Month to date snowfall 0.0 0.0  
Since 1 July snowfall 0.0 0.0  
Since 1 September snowfall 0.0 0.0  
Snow Depth 0.00 in    
Sea Level Pressure  
Sea Level Pressure 29.91 in    
Wind  
Wind Speed 7 mph ()    
Max Wind Speed 22 mph    
Max Gust Speed 30 mph    
Visibility 7.3 miles    
Events Rain    
T = Trace of Precipitation, MM = Missing Value Source: Averaged Metar Reports

Daily Weather History Graph

Daily Weather History Graph

Search for Another Location

Airport or City:

Astronomy

Oct. 02, 2019 Rise Set
Actual Time 7:18 AM EDT 7:00 PM EDT
Civil Twilight 6:50 AM EDT 7:28 PM EDT
Nautical Twilight 6:18 AM EDT 8:01 PM EDT
Astronomical Twilight 5:45 AM EDT 8:33 PM EDT
Moon 11:46 AM EDT (10/2) 9:49 PM EDT (10/2)
Length of Visible Light 12h 38m
Length of Day
11h 42m
Waxing Crescent, 20% of the Moon is Illuminated
Oct 2
Waxing Crescent
Oct 5
First Quarter
Oct 13
Full
Oct 21
Last Quarter
Oct 27
New

Hourly Weather History & Observations

Time (EDT) Temp. Dew Point Humidity Pressure Visibility Wind Dir Wind Speed Gust Speed Precip Events Conditions
12:51 AM 73.0 °F 66.0 °F 79% 29.88 in 10.0 mi South 4.6 mph - N/A   Mostly Cloudy
1:51 AM 73.0 °F 66.9 °F 81% 29.87 in 10.0 mi South 5.8 mph - N/A   Mostly Cloudy
2:51 AM 75.0 °F 66.9 °F 76% 29.86 in 10.0 mi South 6.9 mph - N/A   Overcast
3:51 AM 77.0 °F 64.9 °F 66% 29.85 in 10.0 mi SSW 9.2 mph - N/A   Overcast
4:51 AM 79.0 °F 64.0 °F 60% 29.85 in 10.0 mi WSW 9.2 mph - N/A   Overcast
6:51 AM 75.0 °F 66.0 °F 73% 29.87 in 10.0 mi West 10.4 mph - 0.00 in Rain Light Rain
7:51 AM 72.0 °F 66.9 °F 84% 29.85 in 10.0 mi SSW 4.6 mph - 0.00 in   Clear
8:51 AM 75.0 °F 66.0 °F 73% 29.87 in 10.0 mi SW 8.1 mph - N/A   Partly Cloudy
9:51 AM 77.0 °F 66.0 °F 69% 29.88 in 10.0 mi WSW 6.9 mph - N/A   Mostly Cloudy
10:51 AM 77.0 °F 66.9 °F 71% 29.87 in 10.0 mi Variable 4.6 mph - N/A   Overcast
11:51 AM 73.9 °F 66.9 °F 79% 29.89 in 10.0 mi West 8.1 mph - N/A   Scattered Clouds
12:12 PM 72.0 °F 68.0 °F 87% 29.91 in 5.0 mi NW 8.1 mph - N/A   Overcast
12:51 PM 73.9 °F 66.9 °F 79% 29.90 in 10.0 mi Calm Calm - N/A   Overcast
1:08 PM 73.0 °F 66.9 °F 81% 29.93 in 10.0 mi NW 8.1 mph - N/A   Overcast
1:15 PM 72.0 °F 66.9 °F 84% 29.92 in 6.0 mi NW 4.6 mph - N/A   Haze
1:22 PM 71.1 °F 68.0 °F 90% 29.91 in 2.5 mi NNE 6.9 mph - 0.00 in Rain Light Rain
1:38 PM 71.1 °F 66.9 °F 87% 29.92 in 6.0 mi Calm Calm - 0.01 in   Overcast
1:48 PM 71.6 °F 66.2 °F 83% 29.91 in 7.0 mi North 5.8 mph - 0.01 in   Overcast
1:51 PM 72.0 °F 66.9 °F 84% 29.90 in 7.0 mi North 5.8 mph - 0.01 in   Overcast
2:14 PM 70.0 °F 66.9 °F 90% 29.91 in 2.5 mi NNE 9.2 mph - 0.00 in Rain Light Rain
2:25 PM 69.1 °F 66.0 °F 90% 29.92 in 4.0 mi NE 11.5 mph - 0.00 in Rain Light Rain
2:34 PM 69.1 °F 64.9 °F 87% 29.92 in 1.8 mi NE 12.7 mph - 0.00 in Rain Light Rain
2:45 PM 68.0 °F 64.4 °F 88% 29.92 in 3.0 mi NE 12.7 mph - 0.00 in Rain Light Rain
2:51 PM 66.9 °F 64.0 °F 90% 29.91 in 4.0 mi NE 11.5 mph - 0.00 in Rain Light Rain
3:08 PM 66.9 °F 64.0 °F 90% 29.93 in 5.0 mi NE 11.5 mph - 0.00 in Rain Light Rain
3:51 PM 66.0 °F 63.0 °F 90% 29.91 in 4.0 mi NE 12.7 mph 20.7 mph 0.00 in Rain Light Rain
4:30 PM 66.0 °F 62.1 °F 87% 29.94 in 8.0 mi NNE 9.2 mph - 0.00 in Rain Light Rain
4:51 PM 66.0 °F 62.1 °F 87% 29.92 in 6.0 mi NNE 13.8 mph - 0.00 in Rain Light Rain
5:51 PM 64.0 °F 61.0 °F 90% 29.93 in 5.0 mi NE 13.8 mph - 0.00 in Rain Light Rain
6:51 PM 63.0 °F 60.1 °F 90% 29.95 in 4.0 mi NE 13.8 mph 24.2 mph 0.01 in Rain Light Rain
7:51 PM 62.1 °F 57.9 °F 86% 29.96 in 3.0 mi NE 16.1 mph 24.2 mph 0.01 in Rain Light Rain
8:51 PM 61.0 °F 57.9 °F 90% 29.98 in 8.0 mi ENE 19.6 mph 25.3 mph 0.03 in Rain Light Rain
9:51 PM 60.1 °F 55.9 °F 86% 29.99 in 10.0 mi ENE 13.8 mph - 0.02 in Rain Light Rain
10:16 PM 60.1 °F 55.9 °F 86% 30.01 in 10.0 mi NE 15.0 mph - 0.00 in Rain Light Rain
10:51 PM 60.1 °F 55.9 °F 86% 29.99 in 10.0 mi NE 11.5 mph 24.2 mph 0.00 in Rain Light Rain
11:51 PM 59.0 °F 55.0 °F 87% 30.00 in 10.0 mi NE 12.7 mph - 0.00 in Rain Light Rain